Torna al catalogo

QIANFAN-67

AttivoComunicazioniPO
NORAD 62797·PAYLOAD·🇨🇳 China

Lanciato Jan 23, 2025 da Taiyuan Satellite Launch Center

Loading…

Prossimi Passaggi (prossime 24 ore)

TLE

AggiornatoSource: Space-Track

Epoca: Sep 14, 2026, 13:46 UTC

1 62797U 25016N   26257.57378266  .00000034  00000-0  34100-4 0  9990
2 62797  88.9662  74.3990 0013123 268.9196  91.0452 13.51028924 84508

Traccia QIANFAN-67 in tempo reale con AllMySat

Download on the App Store